Pendleton, OR

4:23 PM PDT on September 24, 2016 (GMT -0700)
Eastern Oreg Regional At Pendleton

Weather History for KPDT - May, 2013

Change the Weather History Date:

Tuesday, May 28, 2013

  Actual Average Record
Temperature  
Mean Temperature 58 °F 61 °F  
Max Temperature 68 °F 73 °F 100 °F (1934)
Min Temperature 48 °F 49 °F 31 °F (1918)
Degree Days  
Heating Degree Days 7 5  
Month to date heating degree days 208 231  
Since 1 July heating degree days 4995 5178  
Cooling Degree Days 0 1  
Month to date cooling degree days 31 19  
Year to date cooling degree days 31 20  
Growing Degree Days 9 (Base 50)    
Moisture  
Dew Point 45 °F    
Average Humidity 68    
Maximum Humidity 93    
Minimum Humidity 42    
Precipitation  
Precipitation 0.06 in 0.04 in 1.05 in (1988)
Month to date precipitation 1.08 1.20  
Year to date precipitation 3.93 6.26  
Snow  
Snow 0.00 in 0.00 in 0.00 in (2002)
Month to date snowfall 0.0 0.0  
Year to date snowfall 0.2 7.7  
Since 1 July snowfall 2.0 15.2  
Snow Depth 0.00 in    
Sea Level Pressure  
Sea Level Pressure 29.81 in    
Wind  
Wind Speed 10 mph (WSW)    
Max Wind Speed 21 mph    
Max Gust Speed 26 mph    
Visibility 10 miles    
Events Rain    
T = Trace of Precipitation, MM = Missing Value Source: NWS Daily Summary

Daily Weather History Graph

Daily Weather History Graph

Search for Another Location

Airport or City:

Trip Planner

Search our weather history database for the weather conditions in past years. The results will help you decide how hot, cold, wet, or windy it might be!

Date:

Astronomy

May. 28, 2013 Rise Set
Actual Time 5:11 AM PDT 8:34 PM PDT
Civil Twilight 4:35 AM PDT 9:11 PM PDT
Nautical Twilight 3:47 AM PDT 9:59 PM PDT
Astronomical Twilight 2:46 AM PDT 11:00 PM PDT
Moon 11:53 PM PDT (5/28) 9:10 AM PDT (5/28)
Length of Visible Light 16h 35m
Length of Day
15h 22m
Waning Gibbous, 82% of the Moon is Illuminated
May 28
Waning Gibbous
May 31
Last Quarter
Jun 8
New
Jun 16
First Quarter
Jun 23
Full

Hourly Weather History & Observations

Time (PDT) Temp. Dew Point Humidity Pressure Visibility Wind Dir Wind Speed Gust Speed Precip Events Conditions
12:53 AM 51.1 °F 50.0 °F 96% 29.79 in 10.0 mi South 6.9 mph - 0.02 in Rain Light Rain
1:53 AM 50.0 °F 48.9 °F 96% 29.80 in 10.0 mi South 8.1 mph - 0.03 in Rain Light Rain
2:53 AM 51.1 °F 48.9 °F 92% 29.80 in 10.0 mi South 9.2 mph - 0.01 in Rain Light Rain
3:45 AM 50.0 °F 48.9 °F 96% 29.82 in 8.0 mi South 6.9 mph - 0.02 in Rain Light Rain
3:53 AM 50.0 °F 48.9 °F 96% 29.81 in 10.0 mi South 6.9 mph - 0.02 in Rain Light Rain
4:31 AM 51.1 °F 48.0 °F 89% 29.83 in 10.0 mi South 4.6 mph - 0.00 in   Overcast
4:53 AM 51.1 °F 48.0 °F 89% 29.81 in 10.0 mi WSW 3.5 mph - 0.00 in   Mostly Cloudy
5:53 AM 50.0 °F 46.0 °F 86% 29.82 in 10.0 mi WSW 11.5 mph - N/A   Overcast
6:53 AM 52.0 °F 46.0 °F 80% 29.84 in 10.0 mi WSW 13.8 mph - N/A   Overcast
7:53 AM 53.1 °F 44.1 °F 71% 29.85 in 10.0 mi West 18.4 mph 25.3 mph N/A   Mostly Cloudy
8:53 AM 55.9 °F 45.0 °F 67% 29.85 in 10.0 mi SW 13.8 mph 19.6 mph N/A   Mostly Cloudy
9:53 AM 57.0 °F 43.0 °F 59% 29.85 in 10.0 mi WSW 15.0 mph 21.9 mph N/A   Partly Cloudy
10:53 AM 60.1 °F 44.1 °F 55% 29.84 in 10.0 mi West 11.5 mph 19.6 mph N/A   Partly Cloudy
11:53 AM 63.0 °F 44.1 °F 50% 29.85 in 10.0 mi West 16.1 mph 24.2 mph N/A   Scattered Clouds
12:53 PM 63.0 °F 41.0 °F 45% 29.84 in 10.0 mi West 12.7 mph 20.7 mph N/A   Scattered Clouds
1:53 PM 64.0 °F 42.1 °F 45% 29.84 in 10.0 mi West 13.8 mph 21.9 mph N/A   Overcast
2:53 PM 64.9 °F 42.1 °F 43% 29.83 in 10.0 mi West 15.0 mph 20.7 mph N/A   Overcast
3:53 PM 66.0 °F 42.1 °F 42% 29.82 in 10.0 mi WNW 11.5 mph 21.9 mph N/A   Mostly Cloudy
4:53 PM 66.0 °F 42.1 °F 42% 29.80 in 10.0 mi West 11.5 mph - N/A   Partly Cloudy
5:53 PM 64.0 °F 43.0 °F 46% 29.79 in 10.0 mi West 6.9 mph - N/A   Scattered Clouds
6:53 PM 64.9 °F 43.0 °F 45% 29.79 in 10.0 mi West 5.8 mph - N/A   Mostly Cloudy
7:53 PM 61.0 °F 44.1 °F 54% 29.78 in 10.0 mi WNW 9.2 mph - N/A   Mostly Cloudy
8:53 PM 55.0 °F 45.0 °F 69% 29.78 in 10.0 mi West 6.9 mph - N/A   Mostly Cloudy
9:53 PM 51.1 °F 43.0 °F 74% 29.78 in 10.0 mi West 10.4 mph - N/A   Clear
10:53 PM 51.1 °F 42.1 °F 71% 29.77 in 10.0 mi WNW 3.5 mph - N/A   Clear
11:53 PM 50.0 °F 43.0 °F 77% 29.75 in 10.0 mi SSE 6.9 mph - N/A   Clear